Flag for Poland Weather past 2 weeks in Szczecin, Poland

Now
43 °F

Light rain. Fog.


Feels Like: 38 °F
Forecast: 37 / 49 °F
Wind: 8 mph from West

Location: Szczecin Airport

Current Time: Mar 6, 2015 at 6:02:06 PM

Latest Report: Mar 6, 2015 at 5:30 PM


Visibility: 2 mi

Pressure: 30.45 "Hg

Humidity: 87%

Dew point: 39 °F

Location of SzczecinLocation

Historic Weather in Szczecin — Graph

°F

Szczecin temperature yesterday

Maximum temperature yesterday: 41 °F (at 3:30 PM)
Minimum temperature yesterday: 27 °F (at 9:30 PM)
Average temperature yesterday: 35 °F

Past Weeks' High & Low Weather Summary

 TemperatureHumidityPressure
High50 °F (Feb 21, 1:00 PM)100% (Feb 20, 5:30 AM)30.51 "Hg (Feb 20, 5:30 AM)
Low23 °F (Feb 26, 7:30 AM)43% (Feb 26, 3:00 PM)29.33 "Hg (Feb 21, 2:00 PM)
Average37 °F81%29.88 "Hg
* Reported Feb 19 5:00 PM — Mar 6 5:00 PM, Szczecin, Weather by CustomWeather, © 2015

Note: Actual official high and low records may vary slightly from our data, if they occured in-between our weather recording intervals... More about our weather records

Advertising

Szczecin weather history for previous 24 hours

 ConditionsComfort  
Time TempWeatherWind HumidityBarometerVisibility
5:00 PM
Fri, Mar 6
45 °FLight rain. Broken clouds.7 mph76%30.42 "Hg4 mi
4:30 PM45 °FPartly sunny.7 mph76%30.42 "HgN/A
4:00 PM45 °FPartly sunny.7 mph76%30.45 "HgN/A
3:30 PM45 °FBroken clouds.8 mph76%30.45 "HgN/A
3:00 PM43 °FPartly sunny.8 mph81%30.42 "HgN/A
2:30 PM43 °FPartly sunny.8 mph81%30.42 "HgN/A
2:00 PM43 °FPartly sunny.8 mph81%30.45 "HgN/A
1:30 PM43 °FScattered clouds.8 mph81%30.45 "HgN/A
1:00 PM43 °FScattered clouds.6 mph81%30.45 "HgN/A
12:30 PM41 °FPassing clouds.6 mph87%30.45 "HgN/A
12:00 PM39 °FPartly sunny.6 mph93%30.45 "HgN/A
11:30 AM39 °FScattered clouds.7 mph93%30.45 "HgN/A
11:00 AM39 °FPassing clouds.7 mph93%30.45 "HgN/A
10:30 AM37 °FClear.8 mph93%30.45 "Hg5 mi
10:00 AM36 °FScattered clouds.6 mph100%30.48 "Hg5 mi
9:30 AM34 °FScattered clouds.5 mph100%30.48 "Hg5 mi
9:00 AM34 °FPartly sunny.3 mph93%30.48 "Hg5 mi
8:30 AM34 °FPartly sunny.3 mph100%30.48 "Hg5 mi
8:00 AM34 °FLight rain. Partly sunny.3 mph93%30.48 "Hg5 mi
7:30 AM32 °FLight rain. Ice fog.3 mph100%30.48 "Hg3 mi
7:00 AM32 °FPartly sunny.3 mph100%30.48 "Hg4 mi
6:30 AM32 °FClear.3 mph100%30.48 "Hg4 mi
6:00 AM30 °FIce fog.5 mph100%30.48 "Hg2 mi
5:30 AM28 °FIce fog.3 mph100%30.48 "Hg1 mi
5:00 AM28 °FIce fog.5 mph100%30.48 "Hg1 mi
4:30 AM28 °FIce fog.3 mph100%30.48 "Hg2 mi
4:00 AM28 °FIce fog.No wind100%30.48 "Hg2 mi
3:30 AM27 °FIce fog.No wind93%30.48 "Hg2 mi
3:00 AM27 °FIce fog.No wind100%30.48 "Hg2 mi
2:30 AM28 °FIce fog.No wind100%30.51 "Hg2 mi
2:00 AM28 °FIce fog.3 mph100%30.51 "Hg2 mi
1:30 AM28 °FIce fog.3 mph100%30.51 "Hg2 mi
1:00 AM27 °FIce fog.2 mph93%30.51 "Hg3 mi
12:30 AM27 °FClear.No wind93%30.51 "Hg4 mi
12:00 AM27 °FClear.No wind93%30.51 "Hg5 mi
11:30 PM
Thu, Mar 5
27 °FClear.No wind100%30.51 "Hg4 mi
11:00 PM28 °FClear.No wind93%30.51 "Hg10 mi
10:30 PM28 °FPassing clouds.No wind100%30.51 "HgN/A
10:00 PM28 °FPassing clouds.2 mph93%30.51 "HgN/A
9:30 PM27 °FClear.2 mph93%30.48 "Hg10 mi
9:00 PM28 °FPassing clouds.2 mph93%30.48 "HgN/A
8:30 PM28 °FClear.No wind93%30.48 "Hg10 mi
8:00 PM30 °FClear.No wind93%30.48 "Hg10 mi
7:30 PM30 °FPassing clouds.No wind86%30.48 "HgN/A
7:00 PM34 °FPassing clouds.No wind81%30.48 "HgN/A
6:30 PM36 °FPassing clouds.2 mph75%30.48 "HgN/A
6:00 PM37 °FPassing clouds.5 mph70%30.45 "HgN/A
Weather by CustomWeather, © 2015

See weather overviewHow to use our weather pages